Probability
58 45 26 19 6 0 0 0 0 0 0 0 0 0 0 0 0 0 0 0 0 0 0 0 0 0 0 0 0 0 0 0 0 0 0 0 0 0 0 0 3 3 3 3
23 19 0 0 0 0 0 0 0 0 0 0 0 0 0 0 0 0 0 0 0 0 0 0 0 0 0 0 0 0 0 0 0 0 0 0 0 0 0 0 0 3 6 3
3 3 0 0 0 0 0 0 0 0 0 0 0 0 0 0 0 0 0 0 0 0 0 0 0 0 0 0 0 0 0 0 0 0 0 0 0 0 0 0 3 0 0 3
0 0 0 0 0 0 0 0 0 0 0 0 0 0 0 0 0 0 0 0 0 0 0 0 0 0 0 0 0 0 0 0 0 0 0 0 0 0 0 0 0 0 0 0
0 0 0 0 0 0 0 0 0 0 0 0 0 0 0 0 0 0 0 0 0 0 0 0 0 0 0 0 0 0 0 0 0 0 0 0 0 0 0 0 0 0 0 0
0 0 0 0 0 0 0 0 0 0 0 0 0 0 0 0 0 0 0 0 0 0 0 0 0 0 0 0 0 0 0 0 0 0 0 0 0 0 0 0 0 0 0 0
0 0 0 0 0 0 0 0 0 0 0 0 0 0 0 0 0 0 0 0 0 0 0 0 0 0 0 0 0 0 0 0 0 0 0 0 0 0 0 0 0 0 0 0
0 0 0 0 0 0 0 0 0 0 0 0 0 0 0 0 0 0 0 0 0 0 0 0 0 0 0 0 0 0 0 0 0 0 0 0 0 0 0 0 0 0 0 0
0 0 0 0 0 0 0 0 0 0 0 0 0 0 0 0 0 0 0 0 0 0 0 0 0 0 0 0 0 0 0 0 0 0 0 0 0 0 0 0 0 0 0 0
0 0 0 0 0 0 0 0 0 0 0 0 0 0 0 0 0 0 0 0 0 0 0 0 0 0 0 0 0 0 0 0 0 0 0 0 0 0 0 0 0 0 0 0
0 0 0 0 0 0 0 0 0 0 0 0 0 0 0 0 0 0 0 0 0 0 0 0 0 0 0 0 0 0 0 0 0 0 0 0 0 0 0 0 0 0 0 0
0 0 0 0 0 0 0 0 0 0 0 0 0 0 0 0 0 0 0 0 0 0 0 0 0 0 0 0 0 0 0 0 0 0 0 0 0 0 0 0 0 0 0 0
0 0 0 0 0 0 0 0 0 0 0 0 0 0 0 0 0 0 0 0 0 0 0 0 0 0 0 0 0 0 0 0 0 0 0 0 0 0 0 0 0 0 0 0
0 0 0 0 0 0 0 0 0 0 0 0 0 0 0 0 0 0 0 0 0 0 0 0 0 0 0 0 0 0 0 0 0 0 0 0 0 0 0 0 0 0 0 0
0 0 0 0 0 0 0 0 0 0 0 0 0 0 0 0 0 0 0 0 0 0 0 0 0 0 0 0 0 0 0 0 0 0 0 0 0 0 0 0 0 0 0 0
0 0 0 0 0 0 0 0 0 0 0 0 0 0 0 0 0 0 0 0 0 0 0 0 0 0 0 0 0 0 0 0 0 0 0 0 0 0 0 0 0 0 0 0
0 0 0 0 0 0 0 0 0 0 0 0 0 0 0 0 0 0 0 0 0 0 0 0 0 0 0 0 0 0 0 0 0 0 0 0 0 0 0 0 0 0 0 0
0 0 0 0 0 0 0 0 0 0 0 0 0 0 0 0 0 0 0 0 0 0 0 0 0 0 0 0 0 0 0 0 0 0 0 0 0 0 0 0 0 0 0 0
0 0 0 0 0 0 0 0 0 0 0 0 0 0 0 0 0 0 0 0 0 0 0 0 0 0 0 0 0 0 0 0 0 0 0 0 0 0 0 0 0 0 0 0
0 0 0 0 0 0 0 0 0 0 0 0 0 0 0 0 0 0 0 0 0 0 0 0 0 0 0 0 0 0 0 0 0 0 0 0 0 0 0 0 0 0 0 0
0 0 0 0 0 0 0 0 0 0 0 0 0 0 0 0 0 0 0 0 0 0 0 0 0 0 0 0 0 0 0 0 0 0 0 0 0 0 0 0 0 0 0 0
0 0 0 0 0 0 0 0 0 0 0 0 0 0 0 0 0 0 0 0 0 0 0 0 0 0 0 0 0 0 0 0 0 0 0 0 0 0 0 0 0 0 0 0
0 0 0 0 0 0 0 0 0 0 0 0 0 0 0 0 0 0 0 0 0 0 0 0 0 0 0 0 0 0 0 0 0 0 0 0 0 0 0 0 0 0 0 0
0 0 0 0 0 0 0 0 0 0 0 0 0 0 0 0 0 0 0 0 0 0 0 0 0 0 0 0 0 0 0 0 0 0 0 0 0 0 0 0 0 0 0 0
0 0 0 0 0 0 0 0 0 0 0 0 0 0 0 0 0 0 0 0 0 0 0 0 0 0 0 0 0 0 0 0 0 0 0 0 0 0 0 0 0 0 0 0
0 0 0 0 0 0 0 0 0 0 0 0 0 0 0 0 0 0 0 0 0 0 0 0 0 0 0 0 0 0 0 0 0 0 0 0 0 0 0 0 0 0 0 0
Height
5871 5875 5876 5878 5878 5879 5879 5880 5880 5878 5875 5876 5874 5872 5869 5866 5865 5863 5861 5859 5856 5854 5851 5848 5844 5841 5837 5833 5828 5824 5820 5816 5812 5808 5804 5801 5798 5796 5794 5793 5793 5793 5794 5795
5868 5871 5874 5875 5876 5875 5875 5878 5878 5877 5874 5874 5872 5870 5868 5865 5864 5863 5861 5859 5856 5853 5851 5848 5844 5840 5836 5832 5828 5824 5819 5815 5811 5807 5803 5800 5797 5794 5792 5791 5790 5790 5790 5790
5866 5870 5871 5872 5873 5873 5875 5876 5876 5875 5873 5872 5871 5869 5867 5865 5864 5863 5861 5859 5856 5853 5850 5847 5844 5840 5836 5832 5828 5823 5819 5815 5811 5807 5803 5799 5796 5793 5791 5790 5788 5788 5787 5787
5862 5865 5868 5870 5871 5872 5873 5872 5873 5872 5871 5870 5869 5867 5866 5865 5864 5862 5861 5858 5856 5854 5851 5847 5844 5840 5836 5832 5828 5824 5820 5815 5811 5807 5803 5800 5796 5794 5791 5789 5788 5786 5785 5784
5859 5863 5866 5868 5869 5870 5870 5871 5871 5870 5869 5868 5868 5867 5866 5864 5863 5862 5860 5858 5856 5854 5851 5848 5844 5841 5837 5833 5829 5825 5821 5817 5813 5809 5804 5801 5797 5794 5792 5789 5787 5785 5784 5782
5857 5861 5863 5865 5866 5868 5868 5869 5869 5868 5868 5868 5867 5867 5866 5864 5863 5862 5860 5858 5856 5854 5851 5848 5845 5842 5838 5834 5831 5827 5823 5819 5815 5811 5807 5803 5799 5796 5793 5790 5788 5785 5783 5781
5856 5859 5861 5863 5864 5865 5866 5867 5867 5867 5867 5868 5867 5867 5866 5864 5863 5862 5860 5858 5856 5854 5852 5849 5846 5843 5839 5836 5832 5828 5825 5821 5817 5813 5809 5805 5801 5798 5794 5791 5788 5786 5783 5781
5856 5858 5859 5861 5862 5863 5863 5865 5866 5867 5870 5869 5867 5865 5865 5864 5863 5861 5860 5858 5856 5854 5852 5849 5847 5844 5841 5837 5834 5830 5826 5823 5819 5815 5811 5807 5803 5799 5796 5793 5789 5786 5783 5781
5854 5855 5857 5858 5860 5861 5862 5862 5864 5865 5866 5867 5866 5865 5864 5863 5862 5861 5860 5858 5856 5854 5852 5850 5847 5845 5842 5838 5835 5832 5828 5824 5821 5817 5813 5809 5805 5801 5798 5794 5790 5787 5784 5780
5851 5853 5855 5857 5858 5859 5861 5861 5862 5863 5864 5866 5867 5864 5863 5862 5862 5861 5859 5858 5856 5854 5852 5850 5848 5845 5843 5840 5836 5833 5830 5826 5822 5819 5815 5811 5807 5803 5799 5795 5792 5788 5784 5780
5850 5853 5854 5856 5857 5858 5860 5860 5861 5862 5863 5864 5864 5865 5863 5862 5861 5860 5859 5857 5856 5854 5852 5850 5848 5846 5843 5841 5837 5834 5831 5827 5824 5820 5816 5812 5808 5804 5800 5796 5792 5788 5784 5780
5848 5851 5853 5854 5856 5857 5858 5859 5860 5861 5861 5861 5862 5865 5862 5861 5860 5859 5859 5857 5856 5854 5853 5851 5849 5846 5844 5841 5838 5835 5831 5828 5824 5820 5817 5813 5809 5805 5801 5797 5793 5788 5784 5780
5847 5850 5852 5854 5856 5856 5857 5858 5859 5860 5860 5860 5861 5864 5860 5860 5860 5859 5858 5857 5856 5854 5853 5851 5849 5846 5844 5841 5838 5835 5831 5828 5824 5820 5817 5813 5809 5805 5801 5797 5792 5788 5784 5779
5846 5848 5850 5853 5851 5853 5855 5857 5857 5858 5859 5859 5860 5860 5860 5859 5859 5859 5858 5857 5856 5854 5852 5850 5848 5846 5843 5840 5837 5834 5831 5827 5823 5820 5816 5812 5808 5804 5800 5796 5792 5787 5783 5778
5844 5846 5848 5849 5851 5852 5854 5855 5856 5857 5858 5859 5859 5858 5859 5859 5858 5858 5857 5856 5855 5853 5852 5850 5847 5845 5842 5839 5836 5833 5829 5826 5822 5819 5815 5811 5807 5803 5799 5795 5791 5786 5782 5777
5842 5845 5847 5848 5850 5851 5853 5854 5855 5856 5857 5857 5858 5858 5858 5858 5857 5857 5856 5855 5854 5852 5850 5848 5846 5843 5841 5838 5834 5831 5828 5824 5821 5817 5813 5809 5805 5802 5798 5793 5789 5785 5781 5776
5840 5843 5845 5847 5848 5849 5851 5853 5854 5855 5855 5856 5856 5857 5856 5856 5856 5855 5854 5853 5852 5850 5848 5846 5844 5841 5838 5835 5832 5829 5825 5822 5818 5815 5811 5807 5804 5800 5796 5792 5788 5783 5779 5774
5838 5840 5842 5844 5846 5847 5852 5851 5852 5853 5853 5854 5854 5855 5854 5854 5853 5853 5852 5851 5849 5848 5846 5844 5841 5839 5836 5833 5830 5826 5823 5820 5816 5812 5809 5805 5801 5798 5794 5790 5786 5782 5777 5773
5836 5838 5840 5842 5843 5845 5847 5848 5849 5850 5851 5851 5852 5852 5852 5851 5851 5850 5849 5848 5846 5845 5843 5841 5838 5836 5833 5830 5827 5824 5820 5817 5813 5810 5806 5803 5799 5795 5792 5788 5784 5779 5775 5771
5833 5835 5838 5839 5840 5842 5844 5845 5845 5848 5848 5849 5849 5849 5848 5848 5848 5848 5846 5844 5843 5841 5839 5837 5835 5832 5830 5827 5823 5820 5817 5813 5810 5806 5803 5799 5796 5792 5789 5785 5781 5777 5773 5768
5830 5832 5834 5836 5837 5838 5840 5842 5842 5844 5846 5845 5845 5845 5844 5844 5844 5843 5841 5840 5839 5837 5835 5833 5831 5829 5826 5823 5820 5817 5813 5810 5806 5803 5799 5796 5792 5789 5785 5781 5777 5774 5770 5766
5826 5828 5830 5831 5833 5836 5836 5837 5838 5839 5840 5840 5840 5840 5840 5839 5839 5838 5837 5836 5834 5833 5831 5829 5827 5824 5822 5819 5816 5813 5809 5806 5802 5798 5795 5791 5788 5784 5781 5777 5774 5770 5766 5762
5822 5825 5826 5828 5830 5831 5832 5832 5833 5833 5834 5835 5835 5835 5835 5834 5834 5833 5832 5831 5829 5828 5826 5824 5822 5820 5817 5814 5811 5808 5804 5800 5797 5793 5790 5786 5783 5779 5776 5772 5769 5765 5762 5758
5817 5818 5820 5821 5823 5825 5825 5826 5828 5828 5828 5829 5829 5829 5829 5828 5828 5827 5827 5825 5824 5823 5821 5819 5816 5814 5811 5808 5805 5802 5798 5794 5791 5787 5783 5780 5777 5774 5770 5767 5764 5760 5756 5753
5810 5812 5814 5815 5817 5818 5819 5820 5821 5822 5822 5823 5823 5823 5823 5822 5822 5821 5821 5819 5818 5817 5815 5813 5810 5807 5804 5801 5798 5794 5790 5787 5783 5780 5776 5773 5770 5766 5763 5760 5757 5753 5750 5746
5804 5805 5807 5809 5810 5810 5812 5813 5814 5815 5815 5816 5816 5816 5816 5815 5815 5815 5814 5813 5812 5810 5808 5806 5803 5800 5797 5793 5790 5786 5782 5778 5775 5772 5768 5765 5762 5759 5756 5753 5750 5747 5743 5740
Wind_Speed
21 20 18 18 17 19 17 15 15 19 23 21 20 19 18 15 13 11 11 12 13 14 16 17 18 19 20 21 21 20 20 20 19 18 17 16 15 14 14 14 14 15 17 18
21 20 18 18 20 19 15 13 14 18 20 17 16 14 13 12 10 10 10 11 13 14 16 16 18 19 20 21 21 21 21 20 20 19 17 16 15 13 12 11 11 12 13 15
19 17 17 18 19 17 15 16 16 17 17 15 12 10 8 8 8 8 10 11 12 14 16 17 18 19 20 20 21 21 21 21 20 19 18 17 15 13 12 11 10 10 11 12
21 19 18 18 17 17 17 16 13 13 12 11 9 8 6 6 7 8 9 10 12 14 15 17 17 19 20 20 21 21 21 21 21 21 19 18 16 14 13 11 11 10 10 11
23 20 18 18 18 16 15 12 11 10 8 7 6 6 7 6 7 8 9 10 12 13 15 16 17 18 19 20 21 21 22 22 22 22 21 20 18 17 15 13 12 11 10 10
19 17 18 18 15 13 12 10 8 6 5 3 4 5 7 6 7 8 9 10 11 12 14 15 16 17 18 19 20 21 22 22 23 22 22 21 20 19 17 16 15 14 12 10
17 16 16 15 14 12 11 9 5 1 6 6 5 5 5 6 7 7 8 9 10 11 12 13 15 16 17 18 19 20 21 22 22 23 23 22 21 21 19 18 17 16 14 13
11 13 13 13 13 11 10 9 8 7 3 9 8 7 4 5 5 6 7 8 9 10 11 12 14 15 16 17 19 20 20 21 22 23 23 23 22 22 21 20 19 18 17 15
12 14 11 11 12 11 11 10 9 8 10 6 7 6 2 4 5 6 7 8 8 9 10 11 13 14 15 17 18 19 20 21 22 22 23 23 23 23 22 22 21 20 19 18
12 12 10 10 11 11 10 9 8 8 9 7 7 9 4 3 5 5 6 7 8 8 9 10 12 13 15 16 17 19 20 21 22 22 23 23 24 23 23 23 22 22 21 21
13 9 9 10 11 11 11 10 9 8 7 8 8 6 4 4 4 5 6 7 7 8 9 10 12 13 14 15 17 18 19 20 21 22 22 23 23 23 23 23 23 23 23 22
16 12 8 8 9 10 10 10 9 9 9 7 6 3 3 3 3 4 5 6 7 8 9 10 11 13 14 15 16 17 18 19 20 21 22 22 22 22 23 23 23 24 23 23
17 15 11 7 9 11 10 10 9 8 7 6 5 2 2 1 2 3 4 5 7 8 9 10 11 13 14 16 17 17 18 19 20 20 21 21 22 22 22 23 23 24 24 24
16 16 16 14 13 12 11 10 9 8 7 6 4 2 1 1 2 3 4 5 7 8 10 11 12 14 15 16 17 18 18 19 20 20 21 21 21 21 22 22 23 24 24 24
17 17 17 15 12 12 11 10 9 8 7 6 4 2 1 1 2 3 5 6 8 9 10 12 13 14 16 17 18 19 19 20 20 21 21 21 21 22 22 23 23 24 24 24
17 17 16 15 13 12 11 10 9 8 7 5 4 2 2 2 3 4 6 7 8 10 11 13 14 15 17 18 19 19 20 20 20 21 21 21 22 22 22 22 23 24 24 24
17 17 17 15 14 13 12 10 9 8 7 6 5 4 4 4 5 6 7 8 10 11 12 14 15 16 17 18 19 20 20 21 21 21 21 22 22 22 22 23 23 24 24 25
18 18 17 16 15 15 12 10 9 9 8 8 7 6 6 7 7 8 9 10 11 13 14 15 16 17 18 19 20 21 21 21 22 22 22 22 22 23 23 23 23 24 24 25
18 19 18 17 16 13 12 12 11 11 10 9 9 9 9 10 10 11 11 12 13 14 15 16 17 18 19 20 21 21 22 22 23 23 23 23 23 23 23 23 24 24 24 25
18 18 18 18 16 15 14 13 13 13 12 11 11 11 12 13 12 12 13 14 14 15 16 17 18 19 20 21 22 23 24 24 25 25 25 25 25 25 25 24 24 24 25 25
19 19 18 18 18 18 15 13 15 15 14 13 14 14 14 15 14 14 15 15 16 16 17 18 19 20 21 22 23 24 25 26 26 26 26 26 26 26 26 26 26 26 25 25
20 20 19 20 21 20 16 16 17 17 16 16 16 16 17 17 16 17 17 17 17 18 19 19 20 21 22 24 25 26 27 27 28 28 28 28 28 28 27 27 27 27 26 26
22 21 21 22 22 21 19 19 20 20 19 19 18 18 19 19 19 19 19 19 19 19 20 21 22 23 24 26 27 28 29 30 30 30 30 30 29 29 29 28 28 27 27 27
24 24 24 24 23 23 22 22 22 22 22 21 21 21 21 21 21 20 20 20 20 21 22 23 25 26 27 29 30 31 32 33 33 32 32 31 31 30 30 29 29 29 29 28
28 27 26 26 26 25 24 24 24 24 23 23 23 23 23 23 23 22 22 22 22 23 24 26 28 29 31 32 33 34 35 35 35 34 33 33 32 32 31 31 31 30 30 30
30 30 29 27 28 28 26 26 26 25 25 25 25 25 25 25 24 24 24 25 25 26 27 29 30 32 34 35 36 37 37 36 36 34 33 33 33 32 32 31 31 31 31 31
Wind_Direction
230 236 243 250 254 256 258 277 297 298 300 311 312 314 317 327 332 335 339 343 347 349 350 351 352 352 352 352 351 350 349 349 346 343 340 336 329 320 311 301 289 277 271 267
227 233 240 248 258 259 266 280 284 284 296 305 307 310 316 327 337 340 344 348 351 353 354 355 355 355 356 356 356 355 355 355 354 352 350 347 344 339 332 323 309 292 282 275
226 231 239 251 261 273 280 276 275 284 296 301 303 309 320 333 341 344 347 352 356 357 358 358 359 0 2 2 2 3 3 3 3 2 0 359 357 353 348 342 331 317 302 288
220 224 232 246 258 264 264 272 281 285 289 299 312 319 330 343 346 347 351 356 360 0 1 2 4 6 7 9 10 12 12 12 12 12 11 10 8 5 2 355 344 331 319 306
222 227 235 243 251 260 265 273 276 282 288 297 312 321 323 344 344 350 356 360 2 4 5 7 9 11 14 16 18 19 20 20 19 19 19 19 17 16 13 8 0 350 336 324
221 229 236 244 253 257 259 257 260 274 298 313 310 312 309 343 347 353 358 0 3 6 9 12 15 17 19 21 23 23 24 25 24 23 23 23 22 22 20 16 12 7 359 347
225 237 242 247 248 245 242 237 229 315 356 332 312 301 303 342 347 351 354 359 4 8 12 15 18 20 21 23 24 24 24 24 25 25 25 24 24 23 22 19 16 12 7 359
239 253 243 242 242 238 229 224 211 169 186 280 290 291 319 334 341 349 355 359 4 9 13 17 20 21 22 23 23 24 24 24 24 24 24 24 23 23 22 20 18 14 10 5
205 244 245 235 233 230 221 217 216 200 191 214 285 299 317 323 340 347 354 359 5 10 15 17 20 21 21 22 22 23 23 23 22 22 22 22 22 21 20 18 17 14 11 6
192 235 238 234 228 222 218 216 207 201 187 176 255 288 320 344 344 350 356 2 8 12 16 17 18 18 18 19 20 21 21 21 21 20 20 20 19 19 18 17 16 14 11 8
203 218 227 229 225 217 211 208 206 208 201 191 204 257 307 333 345 355 4 9 14 17 18 17 16 16 15 15 15 15 15 15 15 15 15 15 14 14 14 13 13 11 10 7
215 205 220 221 213 216 215 213 208 206 199 201 220 243 280 327 351 3 10 14 16 16 15 13 11 10 8 8 7 7 7 8 7 7 8 8 9 9 8 8 8 8 7 6
208 204 189 218 218 213 209 207 205 202 203 207 220 217 257 336 356 4 7 8 8 8 7 6 4 3 1 1 1 0 -0 360 360 0 1 1 2 2 3 3 3 3 3 2
206 203 194 200 219 201 202 202 198 199 203 207 214 213 202 352 5 5 2 359 357 357 358 358 357 356 355 354 354 353 353 353 354 354 354 355 356 357 357 358 359 359 359 359
206 205 206 204 204 200 200 198 196 198 202 213 207 201 208 336 352 352 350 349 348 348 348 349 349 348 347 346 346 345 345 346 347 348 349 350 351 352 353 354 355 356 356 356
208 207 210 208 206 204 201 198 198 202 207 214 222 231 254 298 319 330 335 337 339 340 340 340 341 341 341 341 341 341 341 341 341 342 344 345 346 348 348 349 351 352 353 354
209 210 211 210 210 208 206 205 208 213 218 226 239 252 268 288 304 316 323 327 329 331 332 333 334 335 336 337 337 338 338 339 339 339 340 341 342 344 345 346 347 349 350 351
212 212 212 214 214 216 210 212 218 224 230 238 249 261 273 285 295 305 312 316 319 322 324 326 328 330 331 332 333 334 335 336 336 336 336 337 339 340 342 343 344 346 347 348
215 216 216 219 222 220 217 220 228 233 239 247 256 265 274 281 289 298 303 308 312 316 319 322 324 326 327 328 329 330 331 331 332 333 334 335 336 337 338 339 341 342 344 346
218 219 221 223 228 230 225 224 236 242 246 252 260 267 274 280 287 292 297 303 308 312 315 318 320 322 324 325 326 328 328 329 329 329 330 331 332 333 334 335 336 338 339 341
223 224 227 230 233 237 234 234 243 249 252 256 264 270 276 282 288 292 297 301 305 309 311 314 316 318 320 321 322 323 324 324 325 325 326 326 327 328 329 330 332 333 335 336
227 228 231 235 239 242 242 245 251 256 259 262 266 271 276 281 286 291 296 299 302 305 307 310 312 314 316 317 318 319 320 320 321 321 322 322 322 323 323 324 325 327 329 331
234 234 237 240 244 248 250 252 256 260 262 264 268 271 275 279 284 289 293 295 298 300 303 306 309 310 312 313 314 315 315 315 316 316 316 316 317 317 318 319 319 321 322 324
239 238 242 246 249 252 254 256 258 261 264 266 269 271 275 279 283 286 289 292 294 297 300 303 306 307 309 310 311 311 311 311 311 312 312 312 312 312 313 313 313 314 316 318
241 243 245 249 254 255 256 258 260 262 265 268 270 272 275 278 281 284 286 289 292 295 298 301 303 305 307 308 309 309 309 308 308 308 308 308 308 309 310 310 311 311 312 313
245 248 249 251 254 256 257 260 262 263 265 268 270 272 275 277 280 282 285 287 291 293 296 299 302 303 305 306 308 309 309 308 307 306 306 306 306 306 307 307 308 309 309 309